Wind_Speed
8 6 6 6 7 7 7 6 7 6 6 8 9 6 5 5 12 14 17 16 9 2 9 15 18 19 19 18 23 26 25 28 27 29 25 22 25 26 25 29 30 18 21 32
5 4 3 3 4 4 3 6 10 7 4 7 8 12 19 8 17 16 18 16 12 8 10 15 11 15 16 15 20 28 30 30 26 25 28 29 32 30 35 33 32 27 28 27
5 5 3 4 5 7 8 3 8 10 12 10 5 17 5 8 13 14 16 18 17 15 18 19 15 7 7 8 10 12 23 16 16 20 25 33 36 36 42 36 39 35 20 26
3 2 1 3 4 7 8 6 9 11 13 18 14 8 11 17 13 13 13 16 17 17 15 18 18 16 11 13 9 5 4 3 2 2 7 10 13 17 33 42 31 26 18 24
2 2 3 6 6 6 10 10 8 9 13 13 11 14 3 17 8 11 12 14 15 15 15 14 18 16 14 10 9 6 5 4 5 8 12 14 18 15 19 23 18 21 24 26
5 3 2 6 7 6 10 11 15 15 13 7 6 8 15 6 5 6 7 12 13 13 13 13 10 10 11 9 12 8 3 6 8 11 14 10 9 12 20 21 20 23 23 29
2 5 1 6 12 4 6 13 17 9 6 5 11 11 13 9 7 7 9 12 12 12 14 18 16 15 15 13 13 14 14 12 13 12 16 15 19 17 22 22 22 25 28 30
8 10 3 2 7 9 9 9 10 12 10 11 12 15 15 11 9 9 11 11 12 12 13 17 24 23 19 19 17 16 15 17 17 18 21 24 25 25 25 24 28 31 32 34
9 6 4 3 4 7 9 13 11 14 16 15 9 6 10 4 7 8 10 10 11 12 12 14 22 27 24 24 25 25 23 20 21 22 22 22 24 23 25 28 30 31 33 36
7 8 1 5 9 5 5 9 12 8 7 13 22 11 10 1 3 7 8 8 8 10 13 14 15 25 26 24 24 23 22 18 17 19 21 25 23 24 27 27 29 31 34 36
6 5 6 9 2 6 12 13 13 9 11 12 9 10 4 3 2 5 7 7 9 10 11 13 14 17 20 21 24 23 21 20 19 20 21 21 23 25 26 27 28 31 34 36
6 4 9 14 9 4 7 6 7 7 14 16 18 20 6 4 6 9 9 8 11 11 11 12 14 15 21 25 26 27 26 27 26 27 27 27 27 29 30 31 31 33 33 32
3 3 8 9 10 6 8 6 9 13 10 15 13 13 6 6 12 8 9 11 13 12 15 14 14 18 22 27 27 29 30 30 30 30 30 30 30 30 32 33 35 35 35 32
5 3 5 11 18 15 12 13 13 13 14 17 19 21 21 12 11 11 13 10 13 14 14 15 16 20 25 32 33 35 38 38 38 37 34 35 34 31 33 33 35 37 35 30
4 2 5 9 14 16 16 15 14 14 13 13 17 16 11 15 17 15 13 19 25 16 13 16 17 21 25 34 44 46 46 46 42 36 35 32 33 31 32 32 30 28 26 26
5 4 10 12 13 13 12 17 16 4 7 13 12 10 13 15 13 16 19 23 21 21 21 17 20 25 28 37 43 48 46 43 39 36 33 31 27 31 30 30 28 27 22 23
4 6 8 11 10 15 15 6 4 6 11 12 14 11 13 17 19 19 19 14 15 19 25 29 32 37 38 41 39 40 41 43 39 37 33 26 24 30 32 30 29 26 27 26
2 5 6 10 12 9 2 3 5 5 8 12 10 11 12 13 15 20 18 20 22 28 32 36 42 43 38 34 32 32 38 32 34 37 28 27 31 32 33 28 26 19 24 31
5 3 7 7 12 13 6 6 5 9 12 6 5 10 15 18 19 15 19 24 29 28 27 28 29 30 30 31 34 34 32 30 42 25 33 36 33 31 25 25 27 28 22 15
3 4 2 8 9 6 4 6 9 13 13 8 13 17 21 23 23 22 30 31 28 27 25 27 28 26 28 29 29 31 25 38 37 34 32 34 31 26 20 19 22 25 20 31
4 9 11 11 11 2 11 15 12 9 10 17 19 20 20 20 20 25 25 25 26 27 26 27 28 25 29 31 34 40 38 37 31 35 35 35 31 24 19 19 22 26 28 26
5 8 10 9 10 3 15 11 11 15 24 21 18 19 21 21 22 23 23 25 25 25 25 24 25 29 27 29 34 37 33 33 32 36 41 32 12 8 20 14 20 17 9 6
2 5 4 5 9 15 11 12 13 19 17 18 22 21 21 23 23 24 25 26 26 26 27 26 25 25 23 34 33 39 34 30 33 39 33 25 18 23 17 8 5 11 11 9
6 8 4 10 2 15 13 13 13 13 18 20 18 21 23 24 25 26 26 28 27 26 24 22 23 25 30 29 32 34 29 30 36 37 36 30 19 19 10 6 14 13 14 14
8 10 10 12 16 19 7 14 18 26 18 18 22 23 23 26 26 27 30 34 35 36 34 29 31 31 21 28 31 31 29 31 34 34 30 30 18 12 17 13 13 15 15 16
9 13 9 9 20 25 26 29 21 17 21 22 23 27 25 26 26 29 34 37 38 36 38 34 36 35 23 21 29 22 26 29 34 25 34 15 16 16 11 15 17 20 19 18
Wind_Direction
247 266 309 1 356 324 324 317 297 280 301 305 286 312 28 53 73 43 26 40 25 17 305 273 259 260 279 276 249 270 270 268 259 266 279 275 277 276 271 264 267 282 286 308
236 229 1 358 357 332 298 285 356 327 279 295 293 52 72 115 67 63 50 53 19 39 80 355 298 284 285 287 257 244 256 262 273 272 270 270 268 262 260 265 264 254 265 298
306 65 49 2 301 299 252 323 333 301 296 258 218 78 333 156 69 63 58 53 51 51 31 20 19 36 4 349 318 252 257 259 267 270 262 258 266 275 278 273 269 282 317 306
319 34 57 328 294 311 15 346 308 300 287 285 196 129 130 321 80 67 58 53 47 38 44 39 21 30 39 34 57 80 119 189 162 317 308 283 301 300 300 302 296 304 312 308
78 276 293 309 350 321 308 329 300 302 275 291 165 120 211 294 87 65 59 50 45 37 20 43 33 21 45 342 21 349 293 295 321 315 300 282 284 306 305 289 307 304 309 307
279 276 267 309 310 293 309 294 290 272 261 241 149 145 159 145 87 86 69 49 46 32 6 350 19 20 1 341 325 302 332 327 313 307 304 282 272 264 271 295 288 295 302 314
233 220 231 346 321 228 309 324 321 251 312 91 246 307 128 135 97 90 61 52 40 32 17 328 324 325 330 329 326 324 313 319 311 312 298 294 299 290 295 298 299 311 312 314
253 156 164 352 2 336 327 337 7 332 335 334 213 23 114 102 74 55 49 38 33 27 25 336 314 312 315 317 321 322 314 306 295 296 297 295 291 290 292 305 308 310 310 313
351 61 7 322 315 334 344 5 331 315 303 273 116 357 266 83 67 41 25 20 25 8 0 6 328 312 313 314 318 318 318 315 308 307 305 301 297 298 297 301 303 307 310 311
340 306 249 322 314 239 357 326 351 327 329 336 329 132 194 239 28 21 10 10 14 8 359 1 353 321 321 325 321 319 316 319 316 306 296 293 294 294 298 305 308 309 311 313
334 315 294 305 342 357 330 328 339 334 314 317 337 10 88 53 25 25 355 348 345 1 360 356 358 350 333 331 328 321 315 315 314 317 314 310 307 304 306 309 310 311 313 315
343 299 302 290 316 9 318 324 11 352 325 325 318 305 305 46 23 14 8 358 352 359 339 342 342 347 335 325 322 322 322 315 310 311 312 315 312 309 308 307 309 308 311 315
309 13 317 301 166 32 355 347 318 315 300 290 298 300 332 286 304 323 341 330 332 335 319 325 331 333 335 323 324 325 324 324 322 316 310 308 306 306 309 308 307 309 311 315
286 282 279 288 303 321 311 302 302 303 295 303 300 311 309 357 15 351 329 328 338 324 318 322 331 323 322 317 321 319 316 317 319 317 313 312 306 304 308 307 308 310 317 318
5 313 296 290 293 299 299 301 306 303 306 319 315 321 338 338 341 338 329 329 327 322 319 319 315 310 310 313 324 319 316 315 315 311 306 301 302 299 305 308 307 310 312 310
334 308 317 305 307 302 303 300 298 326 327 320 308 345 345 329 338 330 327 317 304 304 291 303 317 312 316 316 318 315 315 316 319 313 312 307 300 297 296 307 307 303 301 306
309 317 325 304 315 308 293 38 37 338 330 321 312 329 329 334 335 334 318 317 325 297 293 299 304 310 309 309 305 309 312 319 321 320 319 315 313 301 298 301 308 297 290 291
286 310 299 299 318 306 120 40 10 3 348 324 312 318 327 323 320 327 305 298 317 304 302 302 302 307 314 319 319 318 322 329 334 326 314 315 311 303 302 298 301 284 263 271
340 318 305 301 315 306 150 18 16 357 353 329 340 326 320 316 315 307 314 320 320 319 319 323 326 334 340 328 327 320 314 331 319 316 311 316 312 304 300 295 304 302 300 236
292 342 284 312 297 304 30 345 329 319 299 305 337 327 324 322 318 305 291 302 315 327 332 328 329 333 325 321 315 311 322 325 326 321 314 318 316 306 298 296 298 300 293 293
281 299 282 293 291 276 338 317 319 310 302 300 320 321 324 325 316 318 325 323 324 329 329 326 325 324 318 318 317 316 324 325 319 312 314 322 312 312 305 301 297 302 306 302
286 301 298 293 302 287 337 325 333 295 291 309 322 324 324 323 320 321 319 321 324 317 320 323 324 322 320 316 314 321 327 332 326 319 328 331 298 286 324 309 300 339 324 24
320 234 288 330 297 306 334 330 300 297 314 317 319 325 324 319 319 320 319 317 316 317 316 312 313 313 319 316 316 321 333 333 326 335 344 325 315 332 338 341 13 28 10 9
303 259 286 317 119 295 297 296 303 312 315 319 323 315 314 316 316 317 321 320 313 298 294 299 302 297 303 309 316 324 344 339 338 344 351 350 331 349 3 343 32 14 11 6
268 299 291 295 270 274 270 271 288 304 320 314 313 321 315 316 320 318 307 296 294 291 288 289 288 296 302 311 314 334 341 340 339 337 349 348 3 7 38 35 23 16 9 3
249 251 269 264 279 284 284 291 311 309 312 320 318 314 327 312 299 290 286 286 294 299 299 292 282 280 290 310 321 326 342 339 334 338 342 40 19 18 36 45 27 15 15 17
Height
3172 3171 3170 3169 3169 3169 3168 3167 3166 3164 3165 3165 3165 3164 3163 3162 3159 3161 3161 3161 3159 3158 3154 3152 3154 3153 3153 3152 3151 3149 3148 3147 3148 3145 3148 3150 3148 3146 3147 3143 3144 3145 3144 3141
3173 3170 3171 3171 3171 3170 3169 3167 3164 3163 3163 3164 3163 3163 3158 3158 3164 3165 3164 3162 3158 3154 3115 3148 3150 3149 3149 3148 3147 3145 3143 3143 3144 3145 3144 3142 3140 3141 3135 3139 3135 3134 3136 3135
3171 3171 3171 3172 3170 3169 3167 3167 3167 3166 3162 3161 3162 3165 3166 3165 3167 3168 3167 3164 3161 3160 3155 3154 3149 3148 3147 3145 3143 3141 3140 3140 3141 3139 3139 3138 3137 3137 3129 3133 3130 3129 3118 3124
3172 3171 3172 3172 3170 3169 3166 3167 3166 3163 3160 3154 3156 3171 3173 3167 3168 3169 3168 3166 3164 3161 3159 3157 3153 3149 3147 3145 3142 3141 3140 3138 3137 3136 3134 3132 3133 3134 3131 3127 3122 3122 3116 3117
3174 3172 3172 3171 3170 3171 3169 3167 3165 3161 3158 3155 3153 3163 3171 3168 3168 3170 3168 3167 3166 3163 3158 3156 3154 3151 3149 3145 3143 3141 3138 3136 3135 3131 3129 3128 3129 3127 3125 3124 3120 3115 3112 3112
3173 3172 3173 3172 3171 3170 3169 3166 3162 3160 3157 3153 3156 3156 3170 3168 3168 3168 3166 3165 3164 3163 3158 3155 3153 3150 3148 3146 3141 3139 3136 3134 3132 3129 3127 3125 3121 3122 3121 3118 3115 3113 3111 3106
3171 3171 3172 3172 3169 3168 3167 3164 3157 3153 3164 3159 3158 3158 3164 3168 3168 3168 3166 3163 3163 3161 3157 3152 3151 3147 3147 3144 3141 3138 3135 3132 3131 3128 3127 3123 3121 3120 3117 3116 3113 3110 3106 3102
3166 3170 3171 3173 3173 3171 3169 3167 3165 3163 3157 3153 3153 3164 3165 3167 3168 3167 3165 3163 3163 3160 3155 3149 3148 3147 3145 3142 3140 3137 3135 3131 3129 3128 3126 3121 3118 3116 3112 3109 3104 3102 3098 3093
3170 3169 3172 3172 3173 3173 3170 3169 3169 3165 3158 3156 3160 3168 3170 3167 3166 3167 3165 3163 3162 3159 3154 3150 3143 3143 3141 3139 3136 3133 3129 3127 3125 3122 3119 3117 3113 3110 3106 3103 3100 3096 3091 3087
3176 3174 3172 3173 3172 3172 3172 3172 3170 3166 3163 3162 3155 3162 3166 3167 3166 3166 3164 3163 3160 3159 3155 3149 3143 3139 3136 3134 3132 3129 3126 3122 3119 3116 3113 3110 3106 3103 3099 3097 3093 3089 3085 3081
3177 3177 3174 3172 3172 3173 3172 3172 3172 3173 3172 3168 3165 3167 3167 3167 3166 3165 3164 3162 3158 3156 3153 3149 3144 3138 3134 3132 3128 3126 3122 3119 3116 3112 3109 3105 3101 3097 3095 3092 3088 3083 3080 3076
3177 3177 3176 3173 3174 3173 3174 3174 3175 3178 3176 3174 3173 3171 3166 3166 3164 3162 3162 3160 3157 3153 3150 3148 3143 3138 3133 3129 3126 3122 3119 3114 3111 3107 3103 3100 3097 3092 3089 3085 3081 3077 3074 3071
3177 3178 3176 3169 3173 3175 3174 3174 3175 3176 3175 3175 3174 3171 3168 3166 3164 3161 3159 3157 3156 3153 3148 3145 3140 3136 3131 3125 3122 3118 3114 3110 3106 3101 3097 3094 3090 3087 3083 3079 3075 3071 3068 3064
3177 3178 3179 3178 3174 3176 3175 3175 3174 3174 3174 3171 3171 3170 3169 3163 3163 3161 3159 3155 3154 3152 3147 3142 3138 3133 3129 3123 3119 3115 3111 3107 3102 3097 3092 3086 3082 3081 3076 3072 3068 3064 3061 3059
3175 3177 3177 3176 3174 3173 3172 3172 3171 3171 3171 3171 3170 3168 3165 3164 3162 3160 3155 3152 3150 3147 3144 3140 3134 3129 3124 3118 3114 3110 3104 3099 3095 3089 3085 3080 3075 3072 3070 3066 3062 3059 3057 3054
3176 3176 3175 3173 3172 3170 3169 3169 3168 3168 3170 3170 3168 3167 3166 3162 3160 3158 3155 3149 3146 3142 3137 3133 3128 3124 3120 3113 3107 3101 3095 3090 3085 3080 3076 3071 3067 3063 3062 3059 3056 3053 3050 3048
3176 3175 3174 3171 3170 3168 3167 3168 3168 3169 3169 3169 3167 3166 3164 3161 3159 3156 3149 3145 3141 3136 3132 3128 3123 3119 3113 3107 3102 3096 3090 3084 3079 3074 3069 3065 3062 3057 3054 3053 3050 3046 3043 3040
3174 3174 3174 3171 3169 3164 3167 3167 3168 3168 3168 3167 3165 3164 3162 3159 3156 3153 3146 3140 3137 3133 3128 3123 3118 3112 3106 3100 3095 3089 3084 3080 3074 3069 3063 3059 3055 3051 3047 3043 3041 3034 3026 3029
3173 3173 3172 3171 3169 3168 3165 3166 3166 3166 3167 3162 3160 3159 3157 3154 3152 3153 3141 3136 3132 3127 3122 3117 3113 3107 3102 3097 3092 3086 3079 3073 3070 3064 3058 3053 3048 3042 3040 3035 3033 3031 3029 3025
3172 3171 3173 3172 3170 3166 3168 3166 3164 3163 3164 3158 3157 3155 3152 3148 3145 3143 3136 3133 3127 3123 3119 3115 3110 3105 3100 3093 3085 3080 3074 3070 3063 3057 3052 3047 3040 3035 3033 3031 3029 3027 3027 3024
3172 3172 3170 3168 3167 3166 3164 3162 3159 3163 3164 3155 3153 3150 3146 3143 3141 3135 3132 3129 3125 3121 3117 3113 3108 3103 3097 3091 3085 3078 3072 3067 3060 3053 3047 3040 3033 3031 3028 3027 3025 3022 3019 3017
3172 3171 3168 3166 3165 3165 3164 3161 3161 3160 3156 3152 3148 3145 3142 3140 3136 3132 3128 3124 3120 3116 3112 3109 3105 3099 3094 3089 3079 3076 3069 3064 3057 3048 3040 3034 3028 3022 3020 3020 3018 3015 3012 3012
3170 3170 3169 3170 3168 3166 3163 3160 3156 3153 3151 3147 3144 3141 3138 3135 3131 3127 3123 3119 3115 3112 3108 3104 3100 3095 3090 3084 3079 3072 3068 3062 3053 3046 3036 3029 3026 3022 3018 3017 3017 3017 3015 3014
3168 3165 3166 3166 3166 3162 3161 3157 3152 3149 3146 3143 3141 3137 3133 3129 3125 3121 3117 3114 3110 3104 3101 3097 3093 3089 3087 3078 3072 3070 3062 3058 3051 3045 3036 3031 3027 3023 3020 3019 3018 3018 3016 3014
3167 3164 3164 3163 3160 3156 3157 3150 3146 3144 3141 3138 3134 3131 3127 3123 3119 3116 3111 3104 3100 3096 3093 3091 3087 3084 3081 3076 3073 3068 3062 3057 3051 3044 3037 3031 3027 3024 3023 3022 3022 3019 3016 3013
3161 3161 3162 3160 3154 3152 3150 3145 3142 3139 3135 3132 3128 3123 3121 3117 3111 3105 3099 3095 3090 3086 3082 3080 3078 3077 3075 3072 3069 3067 3062 3057 3050 3043 3038 3035 3032 3028 3027 3025 3023 3020 3016 3013